Hourly Weather Octeville

Today, 10 July, Friday

Time Temperature Precipitation Wind Pressure Humidity
00:00 +16°C° 0 mm 7 mps 757 mmHg 89%
01:00 +15°C° 0 mm 7 mps 757 mmHg 90%
02:00 +15°C° 0 mm 7 mps 757 mmHg 90%
03:00 +14°C° 0 mm 6 mps 757 mmHg 91%
04:00 +14°C° 0 mm 6 mps 757 mmHg 88%
05:00 +14°C° 0 mm 6 mps 758 mmHg 86%
06:00 +15°C° 0 mm 6 mps 758 mmHg 84%
07:00 +15°C° 0 mm 6 mps 759 mmHg 81%
08:00 +16°C° 0 mm 6 mps 759 mmHg 77%
09:00 +17°C° 0 mm 5 mps 759 mmHg 74%
10:00 +17°C° 0 mm 5 mps 760 mmHg 70%
11:00 +19°C° 0 mm 5 mps 760 mmHg 67%
12:00 +19°C° 0 mm 5 mps 761 mmHg 63%
13:00 +19°C° 0 mm 5 mps 761 mmHg 61%
14:00 +19°C° 0 mm 5 mps 761 mmHg 59%
15:00 +19°C° 0 mm 5 mps 761 mmHg 57%
16:00 +17°C° 0 mm 5 mps 761 mmHg 59%
17:00 +17°C° 0 mm 5 mps 761 mmHg 61%
18:00 +16°C° 0 mm 6 mps 762 mmHg 63%
19:00 +15°C° 0 mm 6 mps 762 mmHg 71%
20:00 +13°C° 0 mm 5 mps 763 mmHg 79%
21:00 +10°C° 0 mm 5 mps 763 mmHg 86%
22:00 +10°C° 0 mm 5 mps 763 mmHg 87%
23:00 +10°C° 0 mm 6 mps 764 mmHg 88%

Tomorrow, 11 July, Saturday

Time Temperature Precipitation Wind Pressure Humidity
00:00 +10°C° 0 mm 6 mps 764 mmHg 89%
01:00 +10°C° 0 mm 5 mps 764 mmHg 90%
02:00 +10°C° 0 mm 5 mps 764 mmHg 90%
03:00 +11°C° 0 mm 4 mps 764 mmHg 90%
04:00 +12°C° 0 mm 4 mps 764 mmHg 88%
05:00 +12°C° 0 mm 3 mps 764 mmHg 85%
06:00 +13°C° 0 mm 3 mps 764 mmHg 82%
07:00 +14°C° 0 mm 3 mps 765 mmHg 76%
08:00 +17°C° 0 mm 2 mps 765 mmHg 69%
09:00 +18°C° 0 mm 2 mps 766 mmHg 62%
10:00 +18°C° 0 mm 3 mps 766 mmHg 60%
11:00 +19°C° 0 mm 3 mps 766 mmHg 58%
12:00 +19°C° 0 mm 3 mps 766 mmHg 56%
13:00 +19°C° 0 mm 3 mps 766 mmHg 56%
14:00 +19°C° 0 mm 3 mps 766 mmHg 57%
15:00 +19°C° 0 mm 3 mps 766 mmHg 57%
16:00 +19°C° 0 mm 3 mps 766 mmHg 59%
17:00 +18°C° 0 mm 3 mps 766 mmHg 62%
18:00 +17°C° 0 mm 3 mps 766 mmHg 65%
19:00 +16°C° 0 mm 3 mps 766 mmHg 69%
20:00 +14°C° 0 mm 3 mps 766 mmHg 74%
21:00 +12°C° 0 mm 3 mps 766 mmHg 79%
22:00 +12°C° 0 mm 3 mps 766 mmHg 82%
23:00 +12°C° 0 mm 3 mps 766 mmHg 85%

Day after tomorrow, 12 July, Sunday

Time Temperature Precipitation Wind Pressure Humidity
00:00 +11°C° 0 mm 3 mps 766 mmHg 88%
01:00 +11°C° 0 mm 3 mps 766 mmHg 88%
02:00 +11°C° 0 mm 3 mps 766 mmHg 89%
03:00 +12°C° 0 mm 3 mps 766 mmHg 89%
04:00 +13°C° 0 mm 3 mps 766 mmHg 88%
05:00 +13°C° 0 mm 3 mps 766 mmHg 86%
06:00 +14°C° 0 mm 4 mps 766 mmHg 85%
07:00 +17°C° 0 mm 4 mps 766 mmHg 78%
08:00 +18°C° 0 mm 4 mps 766 mmHg 71%
09:00 +19°C° 0 mm 4 mps 766 mmHg 65%
10:00 +19°C° 0 mm 4 mps 766 mmHg 62%
11:00 +20°C° 0 mm 4 mps 766 mmHg 60%
12:00 +20°C° 0 mm 4 mps 767 mmHg 58%
13:00 +20°C° 0 mm 4 mps 766 mmHg 58%
14:00 +20°C° 0 mm 4 mps 766 mmHg 59%
15:00 +20°C° 0 mm 4 mps 766 mmHg 60%
16:00 +19°C° 0 mm 4 mps 766 mmHg 62%
17:00 +19°C° 0 mm 4 mps 765 mmHg 64%
18:00 +18°C° 0 mm 4 mps 765 mmHg 65%
19:00 +17°C° 0 mm 4 mps 765 mmHg 73%
20:00 +14°C° 0 mm 4 mps 766 mmHg 80%
21:00 +12°C° 0 mm 4 mps 766 mmHg 87%
22:00 +12°C° 0 mm 4 mps 766 mmHg 88%
23:00 +12°C° 0 mm 4 mps 766 mmHg 88%

13 July, Monday

Time Temperature Precipitation Wind Pressure Humidity
00:00 +12°C° 0 mm 3 mps 766 mmHg 89%
01:00 +12°C° 0 mm 3 mps 766 mmHg 89%
02:00 +12°C° 0 mm 3 mps 765 mmHg 89%
03:00 +12°C° 0 mm 3 mps 765 mmHg 89%
04:00 +13°C° 0 mm 3 mps 765 mmHg 87%
05:00 +14°C° 0 mm 3 mps 765 mmHg 85%
06:00 +14°C° 0 mm 3 mps 765 mmHg 83%
07:00 +17°C° 0 mm 3 mps 765 mmHg 75%
08:00 +18°C° 0 mm 3 mps 765 mmHg 68%
09:00 +19°C° 0 mm 2 mps 765 mmHg 60%
10:00 +20°C° 0 mm 3 mps 765 mmHg 59%
11:00 +21°C° 0 mm 3 mps 764 mmHg 57%
12:00 +21°C° 0 mm 3 mps 764 mmHg 55%
13:00 +21°C° 0 mm 3 mps 764 mmHg 56%
14:00 +21°C° 0 mm 3 mps 764 mmHg 57%
15:00 +21°C° 0 mm 4 mps 763 mmHg 58%
16:00 +20°C° 0 mm 4 mps 763 mmHg 61%
17:00 +19°C° 0 mm 4 mps 763 mmHg 64%
18:00 +19°C° 0 mm 4 mps 763 mmHg 67%
19:00 +17°C° 0 mm 4 mps 763 mmHg 70%
20:00 +15°C° 0 mm 4 mps 763 mmHg 73%
21:00 +14°C° 0 mm 5 mps 763 mmHg 76%
22:00 +14°C° 0 mm 4 mps 763 mmHg 76%
23:00 +14°C° 0 mm 3 mps 762 mmHg 75%

14 July, Tuesday

Time Temperature Precipitation Wind Pressure Humidity
00:00 +16°C° 0 mm 3 mps 762 mmHg 75%
01:00 +14°C° 0 mm 3 mps 762 mmHg 74%
02:00 +14°C° 0 mm 3 mps 761 mmHg 73%
03:00 +15°C° 0 mm 2 mps 761 mmHg 72%
04:00 +14°C° 0 mm 3 mps 761 mmHg 73%
05:00 +14°C° 0 mm 3 mps 760 mmHg 74%
06:00 +15°C° 0 mm 4 mps 760 mmHg 75%
07:00 +14°C° 0.4 mm 4 mps 760 mmHg 81%
08:00 +13°C° 0.4 mm 4 mps 760 mmHg 87%
09:00 +13°C° 0.4 mm 5 mps 760 mmHg 92%
10:00 +14°C° 0 mm 5 mps 760 mmHg 87%
11:00 +16°C° 0 mm 6 mps 759 mmHg 81%
12:00 +17°C° 0 mm 6 mps 759 mmHg 75%
13:00 +17°C° 0 mm 6 mps 759 mmHg 78%
14:00 +17°C° 0 mm 6 mps 759 mmHg 81%
15:00 +17°C° 0 mm 5 mps 758 mmHg 83%
16:00 +17°C° 0 mm 5 mps 758 mmHg 81%
17:00 +17°C° 0 mm 6 mps 758 mmHg 78%
18:00 +17°C° 0 mm 6 mps 758 mmHg 76%
19:00 +16°C° 0 mm 6 mps 759 mmHg 81%
20:00 +15°C° 0 mm 5 mps 759 mmHg 86%
21:00 +13°C° 0 mm 5 mps 759 mmHg 91%
22:00 +13°C° 0 mm 5 mps 759 mmHg 91%
23:00 +12°C° 0 mm 5 mps 759 mmHg 91%

15 July, Wednesday

Time Temperature Precipitation Wind Pressure Humidity
00:00 +12°C° 0 mm 5 mps 759 mmHg 92%
01:00 +12°C° 0 mm 5 mps 759 mmHg 92%
02:00 +10°C° 0 mm 5 mps 759 mmHg 93%
03:00 +10°C° 0 mm 5 mps 759 mmHg 93%
04:00 +12°C° 0 mm 5 mps 759 mmHg 91%
05:00 +13°C° 0 mm 4 mps 759 mmHg 89%
06:00 +13°C° 0 mm 4 mps 759 mmHg 87%
07:00 +15°C° 0 mm 5 mps 759 mmHg 83%
08:00 +16°C° 0 mm 5 mps 759 mmHg 79%
09:00 +17°C° 0 mm 5 mps 759 mmHg 75%
10:00 +17°C° 0 mm 6 mps 759 mmHg 75%
11:00 +17°C° 0 mm 6 mps 760 mmHg 76%
12:00 +19°C° 0 mm 6 mps 760 mmHg 77%
13:00 +19°C° 0 mm 6 mps 760 mmHg 75%
14:00 +19°C° 0 mm 6 mps 760 mmHg 73%
15:00 +20°C° 0 mm 6 mps 759 mmHg 72%
16:00 +19°C° 0 mm 6 mps 760 mmHg 75%
17:00 +19°C° 0 mm 6 mps 760 mmHg 78%
18:00 +17°C° 0 mm 6 mps 760 mmHg 82%
19:00 +16°C° 0 mm 6 mps 760 mmHg 87%
20:00 +15°C° 0 mm 5 mps 760 mmHg 91%
21:00 +14°C° 0 mm 5 mps 761 mmHg 96%
22:00 +14°C° 0 mm 5 mps 761 mmHg 97%
23:00 +14°C° 0 mm 5 mps 761 mmHg 97%
Show more